TimeEDT,TemperatureF,Dew PointF,Humidity,Sea Level PressureIn,VisibilityMPH,Wind Direction,Wind SpeedMPH,Gust SpeedMPH,PrecipitationIn,Events,Conditions,WindDirDegrees,DateUTC
12:58 AM,79.0,72.0,79,29.87,10.0,WSW,13.8,-,N/A,,Overcast,240,2013-06-19 04:58:00
1:46 AM,75.2,73.4,94,29.85,2.5,West,15.0,-,0.16,Rain,Light Rain,280,2013-06-19 05:46:00
1:56 AM,75.2,73.4,94,29.85,10.0,WNW,15.0,-,0.16,,Overcast,290,2013-06-19 05:56:00
1:58 AM,75.9,73.0,91,29.86,10.0,NW,16.1,20.7,0.16,,Overcast,310,2013-06-19 05:58:00
2:19 AM,73.4,71.6,94,29.84,1.8,NW,24.2,34.5,0.15,Rain,Heavy Rain,310,2013-06-19 06:19:00
2:30 AM,73.4,71.6,94,29.85,1.0,West,23.0,38.0,0.43,Rain,Heavy Rain,280,2013-06-19 06:30:00
2:38 AM,73.4,71.6,94,29.85,0.8,West,21.9,38.0,0.72,Rain,Heavy Rain,270,2013-06-19 06:38:00
2:44 AM,73.4,71.6,94,29.86,1.2,West,16.1,38.0,0.80,Rain,Heavy Rain,260,2013-06-19 06:44:00
2:56 AM,73.4,71.6,94,29.87,3.0,West,13.8,25.3,0.89,Rain,Light Rain,260,2013-06-19 06:56:00
2:58 AM,73.9,72.0,93,29.87,5.0,WSW,13.8,25.3,0.89,Rain,Light Rain,250,2013-06-19 06:58:00
3:07 AM,73.4,71.6,94,29.86,10.0,West,11.5,-,0.01,Rain,Light Rain,270,2013-06-19 07:07:00
3:25 AM,73.4,71.6,94,29.86,2.5,West,10.4,-,0.01,,Mostly Cloudy,270,2013-06-19 07:25:00
3:32 AM,73.4,71.6,94,29.86,10.0,West,8.1,-,0.01,,Scattered Clouds,270,2013-06-19 07:32:00
3:58 AM,73.9,72.0,93,29.86,10.0,SSW,3.5,-,0.01,,Scattered Clouds,210,2013-06-19 07:58:00
4:53 AM,75.2,71.6,89,29.86,10.0,West,10.4,-,N/A,,Mostly Cloudy,260,2013-06-19 08:53:00
4:58 AM,75.0,72.0,90,29.86,9.0,West,10.4,-,0.00,Rain,Light Rain,260,2013-06-19 08:58:00
5:19 AM,75.2,71.6,89,29.85,10.0,West,11.5,-,0.00,Rain,Light Rain,270,2013-06-19 09:19:00
5:58 AM,73.9,72.0,93,29.87,10.0,West,9.2,-,0.00,,Partly Cloudy,280,2013-06-19 09:58:00
6:36 AM,73.4,71.6,94,29.90,8.0,West,11.5,-,0.01,Rain,Light Rain,270,2013-06-19 10:36:00
6:58 AM,73.0,72.0,96,29.91,6.0,West,8.1,-,0.02,Rain,Light Rain,270,2013-06-19 10:58:00
7:12 AM,73.4,71.6,94,29.91,4.0,West,8.1,-,0.02,Rain,Light Rain,280,2013-06-19 11:12:00
7:22 AM,73.4,71.6,94,29.92,7.0,WNW,8.1,-,0.03,Rain,Light Rain,290,2013-06-19 11:22:00
7:30 AM,73.4,71.6,94,29.92,8.0,WNW,8.1,-,0.03,,Overcast,290,2013-06-19 11:30:00
7:58 AM,73.0,72.0,96,29.93,10.0,NNW,10.4,-,0.03,,Overcast,340,2013-06-19 11:58:00
8:22 AM,73.4,71.6,94,29.93,10.0,North,8.1,-,0.00,,Overcast,360,2013-06-19 12:22:00
8:32 AM,73.4,71.6,94,29.94,10.0,North,8.1,-,0.00,Rain,Light Rain,350,2013-06-19 12:32:00
8:58 AM,73.0,72.0,96,29.95,10.0,North,8.1,-,0.00,,Mostly Cloudy,350,2013-06-19 12:58:00
9:17 AM,73.4,71.6,94,29.95,9.0,North,11.5,-,N/A,,Mostly Cloudy,10,2013-06-19 13:17:00
9:21 AM,73.4,69.8,88,29.95,9.0,North,9.2,-,N/A,,Mostly Cloudy,10,2013-06-19 13:21:00
9:30 AM,75.2,71.6,89,29.95,8.0,North,8.1,-,N/A,,Mostly Cloudy,10,2013-06-19 13:30:00
9:58 AM,73.0,70.0,90,29.97,7.0,NNE,11.5,-,N/A,,Overcast,30,2013-06-19 13:58:00
10:28 AM,73.4,69.8,88,29.97,8.0,NNE,8.1,-,N/A,,Overcast,30,2013-06-19 14:28:00
10:55 AM,71.6,69.8,94,29.99,9.0,NE,10.4,-,N/A,,Overcast,50,2013-06-19 14:55:00
10:58 AM,72.0,70.0,93,29.99,8.0,NE,9.2,-,N/A,,Overcast,50,2013-06-19 14:58:00
11:14 AM,73.4,69.8,88,29.99,9.0,NE,10.4,-,N/A,,Overcast,50,2013-06-19 15:14:00
11:21 AM,73.4,69.8,88,30.00,10.0,NE,11.5,-,N/A,,Overcast,40,2013-06-19 15:21:00
11:58 AM,72.0,69.1,91,30.01,10.0,NE,6.9,-,N/A,,Overcast,40,2013-06-19 15:58:00
12:19 PM,73.4,68.0,83,30.01,10.0,NNE,11.5,-,N/A,,Overcast,30,2013-06-19 16:19:00
12:58 PM,73.9,69.1,85,30.02,10.0,NE,5.8,-,N/A,,Overcast,40,2013-06-19 16:58:00
1:58 PM,73.0,69.1,87,30.03,10.0,NE,6.9,-,N/A,,Overcast,50,2013-06-19 17:58:00
2:58 PM,72.0,69.1,91,30.02,10.0,ENE,9.2,-,0.00,Rain,Light Rain,60,2013-06-19 18:58:00
3:23 PM,73.4,69.8,88,30.00,10.0,NE,9.2,-,0.00,,Mostly Cloudy,50,2013-06-19 19:23:00
3:58 PM,75.0,69.1,82,30.01,10.0,NE,10.4,-,0.00,,Partly Cloudy,40,2013-06-19 19:58:00
4:58 PM,75.9,66.9,74,30.01,10.0,ENE,9.2,17.3,N/A,,Scattered Clouds,60,2013-06-19 20:58:00
5:58 PM,75.0,66.0,73,30.02,10.0,ENE,6.9,-,N/A,,Partly Cloudy,60,2013-06-19 21:58:00
6:13 PM,75.2,66.2,73,30.02,10.0,NNE,10.4,-,N/A,,Mostly Cloudy,30,2013-06-19 22:13:00
6:58 PM,73.0,66.0,79,30.05,10.0,ENE,9.2,17.3,N/A,,Mostly Cloudy,70,2013-06-19 22:58:00
7:47 PM,71.6,64.4,78,30.05,10.0,NE,11.5,18.4,N/A,,Scattered Clouds,50,2013-06-19 23:47:00
7:58 PM,72.0,64.9,78,30.06,10.0,NE,11.5,17.3,N/A,,Partly Cloudy,50,2013-06-19 23:58:00
8:58 PM,71.1,64.9,81,30.06,10.0,NE,9.2,-,N/A,,Partly Cloudy,40,2013-06-20 00:58:00
9:58 PM,70.0,64.9,84,30.09,10.0,NE,8.1,-,N/A,,Partly Cloudy,50,2013-06-20 01:58:00
10:58 PM,70.0,64.9,84,30.09,10.0,NE,6.9,-,N/A,,Clear,40,2013-06-20 02:58:00
11:58 PM,69.1,64.0,84,30.10,10.0,NE,5.8,-,N/A,,Clear,50,2013-06-20 03:58:00